Hauptseite
METAR-TAF:

METAR-TAF

Flughäfen :

Militärflugplatz Dübendorf

Dübendorf, Schweiz

Breite: 47-23-55N, Länge: 8-38-53E, Höhe: 448 m

Beobachtung

Neuester Wetterbericht von vor 35 Minuten, um 15:50 UTC
Wind 5 kt aus Nordost, variierte zwischen Nordwest und Ost/Südost
Temperatur 28°C
Luftfeuchtigkeit 35%
Luftdruck 1011 hPa
Sichtweite 10 km oder mehr
Leicht bewölkt in der Höhe von 8200 ft

METAR: LSMD 161550Z AUTO 04005KT 320V110 9999NDV FEW082 28/11 Q1011 RMK

Zeit: 18:25 (16:25 UTC)


TAF: fehlend

Wetterbeobachtungen und Prognosen von mehr als 4000 Flughäfen (METAR und TAF Bericht).

Die verfügbaren Stationen werden durch gelbe und rote Markierungen auf der Karte dargestellt.

Führen Sie die Maus auf sie, um den Namen der Station zu sehen.

Darauf klicken, um die Beobachtung von Wetterbeobachtungen und Prognosen zu sehen.

Um die Karte zu ändern : klicken Sie auf den grünen Tasten mit einem schwarzen Kreuz Zum Vergrößern, auf den grünen Button mit einem Gedankenstrich zu verkleinern, oder auf die grünen Pfeile für benachbarte Karten.


METAR-TAF: